Regional Weather Roundup
Issued by NWS Little Rock, AR

Home | Current Version | Previous Version | Graphics & Text | Print | Product List | Glossary On
Versions: 1 2 3 4 5 6 7 8 9 10 11 12 13 14 15 16 17 18 19 20 21 22 23 24 25 26 27 28 29 30 31 32 33 34 35 36 37 38 39 40 41 42 43 44 45 46 47 48 49 50
000
ASUS44 KLZK 301205
RWRLZK

WEATHER ROUNDUP FOR ARKANSAS
NATIONAL WEATHER SERVICE LITTLE ROCK AR
700 AM CDT SUN AUG 30 2015

NOTE: "FAIR" INDICATES FEW OR NO CLOUDS BELOW 12,000 FEET WITH NO
SIGNIFICANT WEATHER AND/OR OBSTRUCTIONS TO VISIBILITY.

ARZ001-003-010-029-301300-
NORTHWEST ARKANSAS

CITY           SKY/WX    TMP DP  RH WIND       PRES   REMARKS
FAYETTEVILLE   PTCLDY    69  69 100 CALM      30.01R FOG
6HR MIN TEMP:  69; 6HR MAX TEMP:  72;

FORT SMITH     CLEAR     72  68  87 NE8       29.98R
6HR MIN TEMP:  71; 6HR MAX TEMP:  75;

BENTONVILLE    PTCLDY    72  66  83 SE3       30.01S
6HR MIN TEMP:  70; 6HR MAX TEMP:  73;

ROGERS         PTCLDY    71  69  93 CALM      30.02R
6HR MIN TEMP:  71; 6HR MAX TEMP:  72; 6HR PCP: TRACE;

SILOAM SPGS    PTCLDY    70  64  83 SE6       29.99R
6HR MIN TEMP:  70; 6HR MAX TEMP:  72;

HIGHFILL       PTCLDY    71  70  96 CALM      30.01R
6HR MIN TEMP:  71; 6HR MAX TEMP:  73;

SPRINGDALE     MOCLDY    72  68  88 SE3       30.03R
$$

ARZ004-005-016-301300-
NORTH CENTRAL ARKANSAS

CITY           SKY/WX    TMP DP  RH WIND       PRES   REMARKS
BATESVILLE     PTCLDY    66  64  94 CALM      30.03R
6HR MIN TEMP:  64; 6HR MAX TEMP:  70;

FLIPPIN        CLOUDY    70  64  83 NE5       30.01S
6HR MIN TEMP:  66; 6HR MAX TEMP:  70;

MTN HOME       CLOUDY    68  68 100 CALM      30.03R FOG
6HR MIN TEMP:  68; 6HR MAX TEMP:  69;

$$

ARZ040-041-301300-
WEST CENTRAL ARKANSAS

CITY           SKY/WX    TMP DP  RH WIND       PRES   REMARKS
MENA           PTCLDY    70  70 100 CALM      30.02R
MOUNT IDA      FOG       66  65  96 CALM      29.99S VSB 1
6HR MIN TEMP:  66; 6HR MAX TEMP:  69;

$$

ARZ009-017-025-026-028-301300-
NORTHEAST ARKANSAS

CITY           SKY/WX    TMP DP  RH WIND       PRES   REMARKS
JONESBORO      PTCLDY    69  69 100 CALM      30.02R
6HR MIN TEMP:  68; 6HR MAX TEMP:  72;

NEWPORT        CLEAR     70  69  96 SE5       30.03R
6HR MIN TEMP:  69; 6HR MAX TEMP:  75; 6HR PCP:  0.21;

WALNUT RIDGE   PTCLDY    72  66  83 SE3       30.03R
6HR MIN TEMP:  72; 6HR MAX TEMP:  73; 6HR PCP:  0.06;

BLYTHEVILLE    LGT RAIN  74  74 100 E6        30.04S
6HR MIN TEMP:  73; 6HR MAX TEMP:  77; 6HR PCP:  0.13;

$$

ARZ022-023-033-042-044-301300-
CENTRAL ARKANSAS

CITY           SKY/WX    TMP DP  RH WIND       PRES   REMARKS
LITTLE ROCK    PTCLDY    69  67  93 CALM      30.01R
6HR MIN TEMP:  68; 6HR MAX TEMP:  75;

N LITTLE ROCK    N/A     70  66  86 CALM      30.01R
6HR MIN TEMP:  69; 6HR MAX TEMP:  76;

JACKSONVILLE   CLEAR     65  65  98 E2        30.00R
6HR MIN TEMP:  65; 6HR MAX TEMP:  71;

SEARCY         CLEAR     67  66  97 CALM      30.03R FOG
6HR MIN TEMP:  66; 6HR MAX TEMP:  72;

HOT SPRINGS    PTCLDY    68  67  96 W5        30.02R FOG
6HR MIN TEMP:  68; 6HR MAX TEMP:  73;

RUSSELLVILLE   CLEAR     69  68  96 CALM      30.00R FOG
6HR MIN TEMP:  69; 6HR MAX TEMP:  75;

$$

ARZ036-301300-
EAST ARKANSAS

CITY           SKY/WX    TMP DP  RH WIND       PRES   REMARKS
WEST MEMPHIS   CLOUDY    73  71  93 S6        30.03R
6HR MIN TEMP:  73; 6HR MAX TEMP:  76; 6HR PCP: TRACE;

$$

ARZ050-053-066-070-073-301300-
SOUTHWEST ARKANSAS

CITY           SKY/WX    TMP DP  RH WIND       PRES   REMARKS
ARKADELPHIA    FAIR      64  64 100 CALM      30.01R FOG
6HR MIN TEMP:  65; 6HR MAX TEMP:  70;

CAMDEN         CLEAR     66  64  94 CALM      30.00R FOG
TEXARKANA      CLEAR     73  65  75 S5        30.00R
6HR MIN TEMP:  70; 6HR MAX TEMP:  78;

EL DORADO      CLEAR     67  65  93 W3        30.00S
6HR MIN TEMP:  67; 6HR MAX TEMP:  76;

DE QUEEN       CLEAR     68  68 100 CALM      29.97R FOG
6HR MIN TEMP:  67; 6HR MAX TEMP:  73;

$$

ARZ056-057-069-301300-
SOUTHEAST ARKANSAS

CITY           SKY/WX    TMP DP  RH WIND       PRES   REMARKS
PINE BLUFF     CLEAR     66  65  96 CALM      30.00R FOG
6HR MIN TEMP:  66; 6HR MAX TEMP:  73;

STUTTGART      PTCLDY    72  64  78 SE3       30.00S
6HR MIN TEMP:  70; 6HR MAX TEMP:  75;

MONTICELLO     CLEAR     72  67  84 CALM      30.00R
6HR MIN TEMP:  70; 6HR MAX TEMP:  77;


$$





USA.gov is the U.S. government's official web portal to all federal, state and local government web resources and services.